Location: Gad�tanya
(48.0500°N, 20.8500°E)
Time: 23:08:28
(UTC+00:00)

BREEZE-M DEB (TANK) - Pass Details

Date: 05 July 2020
Orbit: 274 x 20503 km, 49.2° (Epoch: 05 August)

Event Time Altitude Azimuth Distance (km) Brightness Sun altitude
Rises 19:28:12 0° 218° (SW) 5,642 7.9 -7.1°
Reaches altitude 10° 19:34:08 10° 205° (SSW) 2,890 6.3 -7.8°
Maximum altitude 19:38:05 19° 160° (SSE) 1,356 4.3 -8.2°
Drops below altitude 10° 19:40:10 10° 109° (ESE) 1,410 4.4 -8.5°
Enters shadow 19:40:25 - 105° (ESE) 1,476 4.5 -8.5°
